Manitowoc, WI

2:34 AM CDT on April 26, 2018 (GMT -0500)
Manitowoc County

Weather History for KMTW - December, 2012

Change the Weather History Date:

Wednesday, December 26, 2012

  Actual Average Record
Temperature  
Mean Temperature 27 °F -  
Max Temperature 30 °F 23 °F 48 °F (2016)
Min Temperature 24 °F 8 °F -15 °F (1962)
Degree Days  
Heating Degree Days 38    
Moisture  
Dew Point 19 °F    
Average Humidity 71    
Maximum Humidity 80    
Minimum Humidity 60    
Precipitation  
Precipitation 0.00 in - - ()
Sea Level Pressure  
Sea Level Pressure 30.18 in    
Wind  
Wind Speed 10 mph (North)    
Max Wind Speed 16 mph    
Max Gust Speed 25 mph    
Visibility 10 miles    
Events      
Averages and records for this station are not official NWS values.
T = Trace of Precipitation, MM = Missing Value Source: NWS Daily Summary

Daily Weather History Graph

Daily Weather History Graph

Search for Another Location

Airport or City:

Astronomy

Dec. 26, 2012 Rise Set
Actual Time 7:24 AM CST 4:18 PM CST
Civil Twilight 6:51 AM CST 4:51 PM CST
Nautical Twilight 6:15 AM CST 5:28 PM CST
Astronomical Twilight 5:39 AM CST 6:03 PM CST
Moon 3:12 PM CST 5:47 AM CST
Length of Visible Light 9h 59m
Length of Day
8h 53m
Waxing Gibbous, 97% of the Moon is Illuminated
Dec 26
Waxing Gibbous
Dec 28
Full
Jan 4
Last Quarter
Jan 11
New
Jan 18
First Quarter

Hourly Weather History & Observations

Time (CST) Temp. Windchill Dew Point Humidity Pressure Visibility Wind Dir Wind Speed Gust Speed Precip Events Conditions
12:15 AM 26.6 °F 18.2 °F 17.6 °F 69% 30.30 in 10.0 mi North 8.1 mph - N/A   Overcast
12:35 AM 26.6 °F 19.1 °F 19.4 °F 74% 30.30 in 10.0 mi North 6.9 mph - N/A   Overcast
12:55 AM 26.6 °F 19.1 °F 19.4 °F 74% 30.30 in 10.0 mi North 6.9 mph - N/A   Overcast
1:15 AM 26.6 °F 16.8 °F 19.4 °F 74% 30.29 in 10.0 mi North 10.4 mph - N/A   Overcast
1:35 AM 26.6 °F 19.1 °F 19.4 °F 74% 30.30 in 10.0 mi North 6.9 mph - N/A   Overcast
1:55 AM 26.6 °F 18.2 °F 19.4 °F 74% 30.29 in 10.0 mi North 8.1 mph - N/A   Overcast
2:15 AM 26.6 °F 18.2 °F 19.4 °F 74% 30.29 in 10.0 mi North 8.1 mph - N/A   Overcast
2:35 AM 26.6 °F 18.2 °F 19.4 °F 74% 30.28 in 10.0 mi North 8.1 mph - N/A   Overcast
2:55 AM 26.6 °F 18.2 °F 19.4 °F 74% 30.28 in 10.0 mi North 8.1 mph - N/A   Overcast
3:15 AM 26.6 °F 19.1 °F 19.4 °F 74% 30.28 in 10.0 mi North 6.9 mph - N/A   Overcast
3:35 AM 26.6 °F 20.0 °F 19.4 °F 74% 30.27 in 10.0 mi North 5.8 mph - N/A   Overcast
3:55 AM 26.6 °F 17.5 °F 19.4 °F 74% 30.26 in 10.0 mi NNW 9.2 mph - N/A   Overcast
4:15 AM 26.6 °F 17.5 °F 19.4 °F 74% 30.26 in 10.0 mi North 9.2 mph - N/A   Overcast
4:35 AM 24.8 °F 14.6 °F 19.4 °F 80% 30.26 in 10.0 mi NNW 10.4 mph - N/A   Overcast
4:55 AM 24.8 °F 14.6 °F 19.4 °F 80% 30.25 in 10.0 mi North 10.4 mph - N/A   Overcast
5:15 AM 24.8 °F 17.9 °F 19.4 °F 80% 30.25 in 10.0 mi North 5.8 mph - N/A   Overcast
5:35 AM 26.6 °F 19.1 °F 19.4 °F 74% 30.24 in 10.0 mi North 6.9 mph - N/A   Overcast
5:55 AM 26.6 °F 18.2 °F 19.4 °F 74% 30.24 in 10.0 mi North 8.1 mph - N/A   Overcast
6:15 AM 26.6 °F 17.5 °F 19.4 °F 74% 30.23 in 10.0 mi North 9.2 mph - N/A   Overcast
6:35 AM 26.6 °F 16.8 °F 19.4 °F 74% 30.22 in 10.0 mi North 10.4 mph - N/A   Overcast
6:55 AM 26.6 °F 16.8 °F 19.4 °F 74% 30.23 in 10.0 mi North 10.4 mph - N/A   Overcast
7:15 AM 26.6 °F 19.1 °F 19.4 °F 74% 30.22 in 10.0 mi North 6.9 mph - N/A   Overcast
7:35 AM 24.8 °F 16.9 °F 19.4 °F 80% 30.22 in 10.0 mi North 6.9 mph - N/A   Overcast
7:55 AM 24.8 °F 17.9 °F 19.4 °F 80% 30.21 in 10.0 mi North 5.8 mph - N/A   Overcast
8:15 AM 24.8 °F 20.5 °F 19.4 °F 80% 30.21 in 10.0 mi North 3.5 mph - N/A   Overcast
8:35 AM 28.4 °F 19.7 °F 19.4 °F 69% 30.20 in 10.0 mi ENE 9.2 mph 19.6 mph N/A   Overcast
8:55 AM 28.4 °F 19.7 °F 19.4 °F 69% 30.20 in 10.0 mi NE 9.2 mph - N/A   Overcast
9:15 AM 28.4 °F 18.0 °F 19.4 °F 69% 30.21 in 10.0 mi ENE 12.7 mph 19.6 mph N/A   Overcast
9:35 AM 28.4 °F 17.5 °F 19.4 °F 69% 30.21 in 10.0 mi NE 13.8 mph 20.7 mph N/A   Overcast
9:55 AM 28.4 °F 18.5 °F 19.4 °F 69% 30.22 in 10.0 mi NE 11.5 mph - N/A   Overcast
10:15 AM 28.4 °F 18.0 °F 19.4 °F 69% 30.21 in 10.0 mi ENE 12.7 mph 17.3 mph N/A   Overcast
10:35 AM 28.4 °F 17.0 °F 19.4 °F 69% 30.20 in 10.0 mi ENE 15.0 mph 18.4 mph N/A   Overcast
10:55 AM 28.4 °F 19.7 °F 19.4 °F 69% 30.19 in 10.0 mi NE 9.2 mph 20.7 mph N/A   Overcast
11:15 AM 28.4 °F 18.5 °F 19.4 °F 69% 30.18 in 10.0 mi NE 11.5 mph 17.3 mph N/A   Overcast
11:35 AM 28.4 °F 19.1 °F 19.4 °F 69% 30.17 in 10.0 mi NE 10.4 mph 16.1 mph N/A   Overcast
11:55 AM 30.2 °F 21.3 °F 19.4 °F 64% 30.16 in 10.0 mi NNE 10.4 mph 18.4 mph N/A   Overcast
12:15 PM 30.2 °F 21.9 °F 17.6 °F 60% 30.14 in 10.0 mi NNE 9.2 mph 19.6 mph N/A   Overcast
12:35 PM 30.2 °F 21.9 °F 19.4 °F 64% 30.14 in 10.0 mi North 9.2 mph - N/A   Overcast
12:55 PM 28.4 °F 18.0 °F 19.4 °F 69% 30.13 in 10.0 mi North 12.7 mph - N/A   Overcast
1:15 PM 28.4 °F 18.0 °F 19.4 °F 69% 30.13 in 10.0 mi North 12.7 mph 16.1 mph N/A   Overcast
1:35 PM 28.4 °F 18.0 °F 19.4 °F 69% 30.12 in 10.0 mi North 12.7 mph - N/A   Overcast
1:55 PM 28.4 °F 18.5 °F 19.4 °F 69% 30.12 in 10.0 mi North 11.5 mph 17.3 mph N/A   Overcast
2:15 PM 28.4 °F 17.0 °F 19.4 °F 69% 30.12 in 10.0 mi North 15.0 mph 21.9 mph N/A   Overcast
2:35 PM 28.4 °F 17.5 °F 17.6 °F 64% 30.12 in 10.0 mi North 13.8 mph 21.9 mph N/A   Overcast
2:55 PM 28.4 °F 16.6 °F 17.6 °F 64% 30.12 in 10.0 mi North 16.1 mph 21.9 mph N/A   Overcast
3:15 PM 28.4 °F 17.0 °F 17.6 °F 64% 30.13 in 10.0 mi North 15.0 mph 20.7 mph N/A   Overcast
3:35 PM 28.4 °F 18.0 °F 17.6 °F 64% 30.13 in 10.0 mi North 12.7 mph 19.6 mph N/A   Overcast
3:55 PM 26.6 °F 14.7 °F 17.6 °F 69% 30.13 in 10.0 mi North 15.0 mph 19.6 mph N/A   Overcast
4:15 PM 26.6 °F 14.3 °F 17.6 °F 69% 30.13 in 10.0 mi North 16.1 mph 20.7 mph N/A   Overcast
4:35 PM 26.6 °F 15.2 °F 17.6 °F 69% 30.13 in 10.0 mi North 13.8 mph - N/A   Overcast
4:55 PM 26.6 °F 14.7 °F 17.6 °F 69% 30.13 in 10.0 mi North 15.0 mph 18.4 mph N/A   Overcast
5:15 PM 26.6 °F 15.7 °F 17.6 °F 69% 30.13 in 10.0 mi North 12.7 mph 19.6 mph N/A   Overcast
5:35 PM 26.6 °F 15.2 °F 17.6 °F 69% 30.13 in 10.0 mi North 13.8 mph 20.7 mph N/A   Overcast
5:55 PM 26.6 °F 15.2 °F 19.4 °F 74% 30.13 in 10.0 mi North 13.8 mph 19.6 mph N/A   Overcast
6:15 PM 26.6 °F 15.7 °F 17.6 °F 69% 30.13 in 10.0 mi North 12.7 mph - N/A   Overcast
6:35 PM 26.6 °F 15.2 °F 19.4 °F 74% 30.13 in 10.0 mi North 13.8 mph 25.3 mph N/A   Overcast
6:55 PM 26.6 °F 15.7 °F 19.4 °F 74% 30.13 in 10.0 mi North 12.7 mph 19.6 mph N/A   Overcast
7:15 PM 26.6 °F 15.2 °F 19.4 °F 74% 30.14 in 10.0 mi North 13.8 mph 19.6 mph N/A   Overcast
7:35 PM 26.6 °F 14.3 °F 19.4 °F 74% 30.13 in 10.0 mi NNW 16.1 mph 21.9 mph N/A   Overcast
7:55 PM 26.6 °F 14.7 °F 19.4 °F 74% 30.13 in 10.0 mi NNW 15.0 mph 19.6 mph N/A   Overcast
8:15 PM 26.6 °F 14.3 °F 19.4 °F 74% 30.13 in 10.0 mi NNW 16.1 mph 20.7 mph N/A   Overcast
8:35 PM 26.6 °F 14.3 °F 19.4 °F 74% 30.13 in 10.0 mi NNW 16.1 mph - N/A   Overcast
8:55 PM 26.6 °F 15.7 °F 19.4 °F 74% 30.13 in 10.0 mi NNW 12.7 mph 20.7 mph N/A   Overcast
9:15 PM 26.6 °F 15.2 °F 19.4 °F 74% 30.13 in 10.0 mi NNW 13.8 mph - N/A   Overcast
9:35 PM 26.6 °F 16.2 °F 17.6 °F 69% 30.13 in 10.0 mi NNW 11.5 mph - N/A   Overcast
9:55 PM 26.6 °F 15.7 °F 17.6 °F 69% 30.13 in 10.0 mi NNW 12.7 mph 17.3 mph N/A   Overcast
10:15 PM 26.6 °F 16.2 °F 17.6 °F 69% 30.13 in 10.0 mi North 11.5 mph - N/A   Overcast
10:35 PM 26.6 °F 16.2 °F 17.6 °F 69% 30.13 in 10.0 mi North 11.5 mph 17.3 mph N/A   Overcast
10:55 PM 26.6 °F 16.2 °F 17.6 °F 69% 30.13 in 10.0 mi North 11.5 mph 17.3 mph N/A   Overcast
11:15 PM 26.6 °F 15.2 °F 17.6 °F 69% 30.13 in 10.0 mi NW 13.8 mph - N/A   Overcast
11:35 PM 26.6 °F 16.2 °F 19.4 °F 74% 30.12 in 10.0 mi NNW 11.5 mph - N/A   Overcast
11:55 PM 26.6 °F 16.8 °F 19.4 °F 74% 30.12 in 10.0 mi NNW 10.4 mph - N/A   Overcast